Weather History for Port Aransas, TX

Change the Weather History Date:

Monday, October 8, 2012

  Actual Average (KCRP) Record (KCRP)
Temperature  
Mean Temperature 64 °F 76 °F  
Max Temperature 68 °F 86 °F 97 °F (1977)
Min Temperature 59 °F 67 °F 43 °F (1952)
Degree Days  
Heating Degree Days 2 0  
Month to date heating degree days 0  
Since 1 July heating degree days 0  
Cooling Degree Days 0 12  
Month to date cooling degree days 99  
Year to date cooling degree days 3142  
Growing Degree Days 14 (Base 50)    
Moisture  
Dew Point 52 °F    
Average Humidity 68    
Maximum Humidity 83    
Minimum Humidity 56    
Precipitation  
Precipitation 0.00 in 0.11 in 5.71 in (1994)
Month to date precipitation 0.96  
Year to date precipitation 25.28  
Snow  
Snow 0.00 in - - ()
Month to date snowfall  
Since 1 July snowfall  
Since 1 September snowfall  
Snow Depth -    
Sea Level Pressure  
Sea Level Pressure 30.15 in    
Wind  
Wind Speed 14 mph (NNE)    
Max Wind Speed 21 mph    
Max Gust Speed 25 mph    
Visibility 10 miles    
Events      
T = Trace of Precipitation, MM = Missing Value Source: NWS Daily Summary

Daily Weather History Graph

Daily Weather History Graph

Search for Another Location

Airport:

Trip Planner

Search our weather history database for the weather conditions in past years. The results will help you decide how hot, cold, wet, or windy it might be!

Date:

Astronomy

Oct. 08, 2012 Rise Set
Actual Time 7:25 AM CDT 7:06 PM CDT
Civil Twilight 7:01 AM CDT 7:29 PM CDT
Nautical Twilight 6:34 AM CDT 7:56 PM CDT
Astronomical Twilight 6:07 AM CDT 8:23 PM CDT
Moon 12:39 AM CDT (10/8) 2:25 PM CDT (10/8)
Length of Visible Light 12h 27m
Length of Day
11h 40m
Last Quarter, 46% of the Moon is Illuminated
Oct 8
Last Quarter
Oct 15
New
Oct 21
First Quarter
Oct 29
Full
Nov 6
Last Quarter

Hourly Weather History & Observations

Time (CDT) Temp. Dew Point Humidity Pressure Visibility Wind Dir Wind Speed Gust Speed Precip Events Conditions
12:15 AM 62.6 °F 51.8 °F 68% 30.15 in 10.0 mi North 15.0 mph - N/A   Overcast
12:35 AM 62.6 °F 51.8 °F 68% 30.15 in 10.0 mi North 15.0 mph 20.7 mph N/A   Overcast
12:55 AM 60.8 °F 50.0 °F 68% 30.15 in 10.0 mi North 17.3 mph 21.9 mph N/A   Overcast
1:15 AM 60.8 °F 50.0 °F 68% 30.15 in 10.0 mi North 15.0 mph 20.7 mph N/A   Overcast
1:35 AM 60.8 °F 50.0 °F 68% 30.15 in 10.0 mi North 13.8 mph 24.2 mph N/A   Overcast
1:55 AM 60.8 °F 50.0 °F 68% 30.15 in 10.0 mi North 15.0 mph - N/A   Overcast
2:15 AM 60.8 °F 50.0 °F 68% 30.16 in 10.0 mi North 17.3 mph - N/A   Overcast
2:35 AM 60.8 °F 50.0 °F 68% 30.16 in 10.0 mi North 17.3 mph 21.9 mph N/A   Overcast
2:55 AM 60.8 °F 50.0 °F 68% 30.16 in 10.0 mi North 19.6 mph 25.3 mph N/A   Overcast
3:15 AM 60.8 °F 50.0 °F 68% 30.16 in 10.0 mi North 19.6 mph - N/A   Overcast
3:35 AM 60.8 °F 50.0 °F 68% 30.15 in 10.0 mi North 18.4 mph 24.2 mph N/A   Overcast
3:55 AM 60.8 °F 50.0 °F 68% 30.15 in 10.0 mi North 17.3 mph 23.0 mph N/A   Overcast
4:15 AM 60.8 °F 50.0 °F 68% 30.14 in 10.0 mi NNE 19.6 mph 24.2 mph N/A   Overcast
4:35 AM 60.8 °F 50.0 °F 68% 30.13 in 10.0 mi NNE 20.7 mph 25.3 mph N/A   Overcast
4:55 AM 60.8 °F 50.0 °F 68% 30.13 in 10.0 mi NNE 18.4 mph 24.2 mph N/A   Overcast
5:15 AM 60.8 °F 50.0 °F 68% 30.14 in 10.0 mi NNE 12.7 mph - N/A   Overcast
5:35 AM 60.8 °F 51.8 °F 72% 30.13 in 10.0 mi NNE 17.3 mph 20.7 mph N/A   Overcast
5:55 AM 60.8 °F 51.8 °F 72% 30.14 in 10.0 mi NNE 19.6 mph 23.0 mph N/A   Overcast
6:15 AM 59.0 °F 50.0 °F 72% 30.15 in 10.0 mi North 17.3 mph 23.0 mph N/A   Overcast
6:35 AM 59.0 °F 50.0 °F 72% 30.16 in 10.0 mi North 16.1 mph 19.6 mph N/A   Overcast
6:55 AM 59.0 °F 50.0 °F 72% 30.16 in 10.0 mi North 18.4 mph 21.9 mph N/A   Overcast
7:15 AM 59.0 °F 50.0 °F 72% 30.17 in 10.0 mi NNE 17.3 mph 21.9 mph N/A   Overcast
7:35 AM 59.0 °F 50.0 °F 72% 30.17 in 10.0 mi North 18.4 mph 21.9 mph N/A   Overcast
7:55 AM 59.0 °F 50.0 °F 72% 30.18 in 10.0 mi North 12.7 mph 21.9 mph N/A   Overcast
8:15 AM 59.0 °F 48.2 °F 67% 30.19 in 10.0 mi NNE 19.6 mph 24.2 mph N/A   Overcast
8:35 AM 59.0 °F 50.0 °F 72% 30.19 in 10.0 mi North 15.0 mph 23.0 mph N/A   Overcast
8:55 AM 59.0 °F 50.0 °F 72% 30.20 in 10.0 mi North 12.7 mph 23.0 mph N/A   Overcast
9:15 AM 59.0 °F 50.0 °F 72% 30.21 in 10.0 mi NNE 15.0 mph - N/A   Overcast
9:35 AM 59.0 °F 50.0 °F 72% 30.21 in 10.0 mi North 15.0 mph - N/A   Overcast
9:55 AM 59.0 °F 50.0 °F 72% 30.22 in 10.0 mi NNE 13.8 mph - N/A   Overcast
10:15 AM 60.8 °F 50.0 °F 68% 30.22 in 10.0 mi NNE 17.3 mph - N/A   Overcast
10:35 AM 60.8 °F 51.8 °F 72% 30.22 in 10.0 mi NNE 12.7 mph 18.4 mph N/A   Overcast
10:55 AM 60.8 °F 50.0 °F 68% 30.22 in 10.0 mi North 11.5 mph 17.3 mph N/A   Overcast
11:15 AM 60.8 °F 50.0 °F 68% 30.22 in 10.0 mi NNE 11.5 mph 21.9 mph N/A   Overcast
11:35 AM 62.6 °F 50.0 °F 63% 30.22 in 10.0 mi NNE 12.7 mph - N/A   Overcast
11:55 AM 62.6 °F 50.0 °F 63% 30.21 in 10.0 mi North 15.0 mph - N/A   Overcast
12:15 PM 62.6 °F 50.0 °F 63% 30.21 in 10.0 mi NNE 11.5 mph - N/A   Overcast
12:35 PM 62.6 °F 51.8 °F 68% 30.21 in 10.0 mi North 11.5 mph - N/A   Overcast
12:55 PM 62.6 °F 50.0 °F 63% 30.20 in 10.0 mi NNE 8.1 mph - N/A   Overcast
1:15 PM 64.4 °F 50.0 °F 59% 30.19 in 10.0 mi NE 8.1 mph - N/A   Overcast
1:35 PM 64.4 °F 51.8 °F 64% 30.19 in 10.0 mi North 9.2 mph - N/A   Overcast
1:55 PM 64.4 °F 51.8 °F 64% 30.18 in 10.0 mi NNE 9.2 mph - N/A   Overcast
2:15 PM 64.4 °F 51.8 °F 64% 30.17 in 10.0 mi North 8.1 mph - N/A   Overcast
2:35 PM 64.4 °F 51.8 °F 64% 30.16 in 10.0 mi NE 8.1 mph - N/A   Overcast
2:55 PM 66.2 °F 51.8 °F 60% 30.15 in 10.0 mi NE 5.8 mph - N/A   Overcast
3:15 PM 64.4 °F 51.8 °F 64% 30.14 in 10.0 mi North 8.1 mph - N/A   Overcast
3:35 PM 66.2 °F 51.8 °F 60% 30.13 in 10.0 mi NNE 6.9 mph - N/A   Overcast
3:55 PM 68.0 °F 51.8 °F 56% 30.13 in 10.0 mi NNE 9.2 mph - N/A   Overcast
4:15 PM 68.0 °F 51.8 °F 56% 30.13 in 10.0 mi NNE 6.9 mph - N/A   Mostly Cloudy
4:35 PM 68.0 °F 53.6 °F 60% 30.12 in 10.0 mi NE 11.5 mph - N/A   Scattered Clouds
4:55 PM 68.0 °F 53.6 °F 60% 30.11 in 10.0 mi NNE 8.1 mph - N/A   Clear
5:15 PM 68.0 °F 53.6 °F 60% 30.11 in 10.0 mi NNE 9.2 mph 16.1 mph N/A   Clear
5:35 PM 68.0 °F 53.6 °F 60% 30.11 in 10.0 mi NE 9.2 mph - N/A   Clear
5:55 PM 68.0 °F 53.6 °F 60% 30.11 in 10.0 mi NE 10.4 mph - N/A   Clear
6:15 PM 68.0 °F 53.6 °F 60% 30.10 in 10.0 mi NE 9.2 mph - N/A   Clear
6:35 PM 66.2 °F 55.4 °F 68% 30.11 in 10.0 mi NE 6.9 mph - N/A   Clear
6:55 PM 66.2 °F 55.4 °F 68% 30.11 in 10.0 mi NE 6.9 mph - N/A   Scattered Clouds
7:15 PM 66.2 °F 55.4 °F 68% 30.11 in 10.0 mi ENE 4.6 mph - N/A   Scattered Clouds
7:35 PM 68.0 °F 55.4 °F 64% 30.11 in 10.0 mi NE 3.5 mph - N/A   Overcast
7:55 PM 66.2 °F 55.4 °F 68% 30.11 in 10.0 mi ENE 4.6 mph - N/A   Mostly Cloudy
8:15 PM 68.0 °F 57.2 °F 68% 30.12 in 10.0 mi East 4.6 mph - N/A   Mostly Cloudy
8:35 PM 68.0 °F 57.2 °F 68% 30.12 in 10.0 mi East 3.5 mph - N/A   Overcast
9:15 PM 68.0 °F 59.0 °F 73% 30.13 in 10.0 mi East 5.8 mph - N/A   Overcast
9:35 PM 68.0 °F 59.0 °F 73% 30.13 in 10.0 mi East 6.9 mph - N/A   Overcast
9:55 PM 68.0 °F 60.8 °F 78% 30.13 in 10.0 mi East 5.8 mph - N/A   Overcast
10:15 PM 68.0 °F 60.8 °F 78% 30.11 in 10.0 mi NNE 4.6 mph - N/A   Overcast
10:55 PM 66.2 °F 59.0 °F 78% 30.11 in 10.0 mi North 6.9 mph - N/A   Overcast
11:15 PM 66.2 °F 59.0 °F 78% 30.11 in 10.0 mi NNE 6.9 mph - N/A   Overcast
11:35 PM 66.2 °F 60.8 °F 83% 30.11 in 10.0 mi NNE 6.9 mph - N/A   Overcast
11:55 PM 66.2 °F 60.8 °F 83% 30.11 in 10.0 mi North 6.9 mph - N/A   Overcast